[[{"header":{"parameterUnit":"m.s-1","parameterCategory":1,"la1":30.2991,"la2":30.254,"lo1":-89.0895,"lo2":-89.0444,"dy":0.0017,"dx":0.0017,"nx":28,"ny":28,"refTime":"2025-04-12T21:00:00:Z","depth":0,"parameterNumber":2,"parameterNumberName":"U-component_of_WINDS"},"data":[0,0,0,0,0,0,0,0,0,0,0,0,0,0,0,0,0,0,0,0,0,0,0,0,0,0,0,0,0,0,0,0,0,0,0,0,0,0,0,0,0,0,0,0,0,0,0,0,0,0,0,0,0,0,0,0,0,0,-0.0993,-0.0992,0,-0.0897,-0.0896,-0.0895,-0.0861,-0.0861,-0.0862,-0.0862,-0.0764,-0.0762,-0.0759,0,0,0,0,0,0,0,0,0,0,0,0,0,-0.1151,-0.1148,-0.0993,-0.0992,-0.0991,-0.0897,-0.0896,-0.0894,-0.0861,-0.0861,-0.0862,-0.0862,-0.0765,-0.0762,-0.0758,0,0,0,0,0,0,0,0,0,0,0,0,0,-0.1071,-0.1147,-0.0994,-0.0963,-0.0959,-0.0897,-0.0895,-0.0894,-0.0861,-0.0861,-0.0862,-0.0862,-0.0767,-0.0762,-0.0758,-0.072,0,0,-0.0744,-0.0743,0,0,0,0,0,0,0,0,-0.1076,-0.1066,-0.0969,-0.0965,-0.0961,-0.0891,-0.0915,-0.0836,-0.0861,-0.0898,-0.0862,-0.0863,-0.0806,-0.0799,-0.0779,-0.0715,-0.0711,-0.0744,-0.0741,-0.074,-0.0738,0,0,0,0,0,0,0,-0.1081,-0.107,-0.0955,-0.0967,-0.0962,-0.0955,-0.0944,-0.09,-0.085,-0.0895,-0.0892,-0.0881,-0.0804,-0.0784,-0.0777,-0.071,-0.0744,-0.074,-0.0738,-0.0736,-0.061,-0.0609,0,0,0,0,0,0,-0.1092,-0.1074,-0.0958,-0.0952,-0.1021,-0.0951,-0.0939,-0.0913,-0.0851,-0.0842,-0.0881,-0.088,-0.0791,-0.0782,-0.0773,-0.0724,-0.074,-0.0735,-0.0733,-0.061,-0.0609,-0.0609,0,0,0,0,0,0,-0.1095,-0.1082,-0.0962,-0.1013,-0.0997,-0.0948,-0.0919,-0.0911,-0.089,-0.084,-0.0831,-0.0869,-0.0791,-0.078,-0.0733,-0.0721,-0.0733,-0.0729,-0.0611,-0.061,-0.0609,-0.0627,0,0,0,0,0,0,-0.11,-0.1083,-0.1068,-0.1012,-0.0994,-0.0923,-0.0918,-0.0909,-0.0883,-0.0881,-0.0826,-0.0818,-0.0791,-0.074,-0.0729,-0.0715,-0.0726,-0.0612,-0.0611,-0.0609,-0.0627,-0.0626,-0.0626,0,0,0,0,0,-0.1106,-0.1077,-0.1067,-0.1053,-0.0974,-0.0923,-0.0912,-0.0881,-0.0882,-0.0866,-0.0834,-0.082,-0.0724,-0.0736,-0.0723,-0.0707,-0.0613,-0.0611,-0.0609,-0.0627,-0.0626,-0.0626,0,0,0,0,0,0,-0.1133,-0.1069,-0.1058,-0.101,-0.0972,-0.0917,-0.0896,-0.0881,-0.0842,-0.0842,-0.0805,-0.0793,-0.075,-0.0724,-0.0738,-0.0667,-0.0668,-0.0663,-0.0685,-0.0684,-0.0684,-0.0691,-0.0722,0,0,0,0,0,-0.1133,-0.1096,-0.1043,-0.1006,-0.0988,-0.0945,-0.0922,-0.0901,-0.086,-0.0844,-0.0809,-0.077,-0.0731,-0.0706,-0.0668,-0.0623,-0.0611,-0.0606,-0.0606,-0.0605,-0.0602,-0.0577,-0.0574,-0.0603,-0.0603,-0.0603,0,0,-0.1134,-0.1095,-0.1074,-0.1011,-0.0979,-0.0942,-0.0932,-0.0894,-0.0866,-0.0838,-0.0792,-0.0765,-0.072,-0.0674,-0.0652,-0.0651,-0.0591,-0.0603,-0.0604,-0.06,-0.0575,-0.0572,-0.0569,-0.0602,-0.0602,-0.0603,0,0,-0.1116,-0.1082,-0.1048,-0.1016,-0.0967,-0.0939,-0.0931,-0.0879,-0.0859,-0.0812,-0.0791,-0.0758,-0.0692,-0.066,-0.0636,-0.0606,-0.0592,-0.0595,-0.0591,-0.0567,-0.0564,-0.0562,-0.0552,-0.0548,-0.0592,-0.0592,-0.0592,0,-0.1123,-0.1066,-0.1032,-0.0995,-0.0968,-0.0941,-0.0906,-0.0877,-0.0818,-0.0801,-0.08,-0.0717,-0.0684,-0.0631,-0.0624,-0.0605,-0.0594,-0.06,-0.0567,-0.0565,-0.0562,-0.0552,-0.0548,-0.0592,-0.0592,-0.0592,-0.0592,0,-0.1077,-0.1038,-0.1016,-0.0959,-0.093,-0.0894,-0.0856,-0.083,-0.0812,-0.0784,-0.0737,-0.0697,-0.065,-0.0636,-0.0618,-0.058,-0.0581,-0.0575,-0.0574,-0.0561,-0.055,-0.0546,-0.0593,-0.0593,-0.0593,-0.0593,0,0,-0.1073,-0.0998,-0.0991,-0.0965,-0.091,-0.0879,-0.0842,-0.0795,-0.0774,-0.0735,-0.0703,-0.0648,-0.0642,-0.0614,-0.0592,-0.0571,-0.055,-0.0567,-0.0565,-0.0565,-0.0505,-0.0511,-0.0506,-0.054,-0.0539,-0.0538,-0.0509,0,-0.1048,-0.098,-0.0948,-0.0894,-0.0858,-0.0832,-0.08,-0.0763,-0.0736,-0.0702,-0.0672,-0.0634,-0.0628,-0.0611,-0.0589,-0.0557,-0.0537,-0.0559,-0.051,-0.0509,-0.0522,-0.0501,-0.0506,-0.048,-0.0505,-0.0504,-0.0504,0,-0.1009,-0.0969,-0.0911,-0.086,-0.0843,-0.0815,-0.077,-0.0737,-0.0695,-0.0677,-0.0646,-0.0625,-0.0586,-0.0588,-0.0534,-0.0549,-0.0528,-0.0509,-0.0507,-0.0501,-0.0505,-0.0494,-0.0471,-0.0467,-0.0497,-0.0497,-0.0498,0,-0.1012,-0.0944,-0.09,-0.0879,-0.0818,-0.0799,-0.0773,-0.0731,-0.0705,-0.0665,-0.0648,-0.0605,-0.0582,-0.0549,-0.0518,-0.0522,-0.0466,-0.0466,-0.045,-0.0451,-0.0439,-0.044,-0.0413,-0.0426,-0.0426,-0.0426,-0.0426,0,-0.0987,-0.0952,-0.0901,-0.0874,-0.0835,-0.08,-0.0762,-0.0734,-0.0697,-0.0665,-0.064,-0.0611,-0.0571,-0.0536,-0.0511,-0.047,-0.046,-0.0444,-0.0438,-0.0446,-0.0448,-0.0431,-0.0432,-0.0425,-0.0425,-0.0426,-0.0426,0,-0.0983,-0.0947,-0.0898,-0.0844,-0.083,-0.0804,-0.0758,-0.0731,-0.0703,-0.0663,-0.0652,-0.0608,-0.0566,-0.0531,-0.0477,-0.046,-0.0417,-0.041,-0.0431,-0.0428,-0.0414,-0.0415,-0.0374,-0.0366,-0.0385,-0.0385,-0.0385,0,-0.0969,-0.0942,-0.0885,-0.0862,-0.0836,-0.0798,-0.0771,-0.0736,-0.0709,-0.0658,-0.0638,-0.0594,-0.0557,-0.0492,-0.0456,-0.0414,-0.0405,-0.0394,-0.0399,-0.0408,-0.0405,-0.0407,-0.0404,-0.0393,-0.0393,-0.0393,-0.0393,0,-0.0949,-0.0932,-0.0894,-0.0849,-0.0818,-0.0781,-0.0744,-0.0726,-0.0684,-0.0656,-0.0612,-0.0584,-0.0527,-0.0484,-0.0439,-0.0412,-0.0396,-0.0392,-0.0386,-0.0394,-0.0407,-0.04,-0.043,-0.0393,-0.0393,-0.0393,-0.0393,-0.0393,-0.0939,-0.0914,-0.087,-0.0828,-0.0796,-0.0762,-0.0734,-0.0703,-0.0666,-0.0617,-0.0598,-0.0554,-0.0512,-0.0449,-0.0423,-0.0388,-0.0386,-0.0377,-0.0375,-0.0373,-0.0375,-0.0413,-0.0379,-0.0379,-0.0379,-0.0379,-0.0379,0,-0.0917,-0.0887,-0.0849,-0.0798,-0.0765,-0.0752,-0.071,-0.0684,-0.0645,-0.0607,-0.0571,-0.0521,-0.048,-0.044,-0.0396,-0.0376,-0.0367,-0.0366,-0.0367,-0.0361,-0.0379,-0.0388,-0.0374,-0.0374,-0.0374,-0.0374,-0.0374,-0.0374,-0.0902,-0.0858,-0.0836,-0.0777,-0.0747,-0.0703,-0.068,-0.0649,-0.0618,-0.0564,-0.0528,-0.0503,-0.0464,-0.0418,-0.0379,-0.0368,-0.0354,-0.0354,-0.0341,-0.0359,-0.036,-0.0361,-0.0369,-0.0351,-0.0351,-0.0326,-0.0326,-0.0326]},{"header":{"parameterUnit":"m.s-1","parameterCategory":1,"la1":30.2991,"la2":30.254,"lo1":-89.0895,"lo2":-89.0444,"dy":0.0017,"dx":0.0017,"nx":28,"ny":28,"refTime":"2025-04-12T21:00:00:Z","depth":0,"parameterNumber":3,"parameterNumberName":"V-component_of_WINDS"},"data":[0,0,0,0,0,0,0,0,0,0,0,0,0,0,0,0,0,0,0,0,0,0,0,0,0,0,0,0,0,0,0,0,0,0,0,0,0,0,0,0,0,0,0,0,0,0,0,0,0,0,0,0,0,0,0,0,0,0,4.6621,4.662,0,4.6606,4.6606,4.6606,4.6535,4.6533,4.6532,4.653,4.6516,4.6517,4.6519,0,0,0,0,0,0,0,0,0,0,0,0,0,4.6589,4.659,4.6621,4.662,4.662,4.6606,4.6606,4.6605,4.6535,4.6533,4.6531,4.653,4.6516,4.6517,4.6519,0,0,0,0,0,0,0,0,0,0,0,0,0,4.6592,4.659,4.6621,4.6584,4.658,4.6606,4.6606,4.6605,4.6536,4.6533,4.6531,4.6529,4.6515,4.6517,4.6519,4.658,0,0,4.6524,4.6525,0,0,0,0,0,0,0,0,4.6591,4.6593,4.6589,4.6586,4.6582,4.657,4.6589,4.6597,4.6536,4.6553,4.653,4.6527,4.6536,4.6536,4.6539,4.6579,4.6578,4.6524,4.6525,4.6526,4.6527,0,0,0,0,0,0,0,4.6591,4.6593,4.6615,4.6589,4.6585,4.6568,4.6566,4.659,4.6559,4.6551,4.6546,4.6545,4.6534,4.6537,4.6538,4.6578,4.6524,4.6526,4.6527,4.6528,4.6667,4.6669,0,0,0,0,0,0,4.6596,4.6593,4.6615,4.6614,4.6581,4.6571,4.6568,4.6576,4.6558,4.6553,4.6547,4.6542,4.6535,4.6536,4.6537,4.6606,4.6526,4.6528,4.6529,4.6664,4.6667,4.667,0,0,0,0,0,0,4.6596,4.6599,4.6616,4.6602,4.6603,4.6574,4.6584,4.6577,4.6581,4.6555,4.6549,4.6557,4.6533,4.6535,4.6569,4.6605,4.6529,4.653,4.6661,4.6665,4.6669,4.6745,0,0,0,0,0,0,4.6595,4.6599,4.6622,4.6603,4.6604,4.6648,4.6586,4.6579,4.6584,4.6577,4.6562,4.6558,4.6532,4.6567,4.6571,4.6606,4.6532,4.6658,4.6663,4.6667,4.674,4.6751,4.6762,0,0,0,0,0,4.6594,4.6644,4.6623,4.6626,4.6632,4.665,4.6651,4.662,4.6587,4.6609,4.6593,4.6558,4.6601,4.6571,4.6575,4.6611,4.6655,4.6661,4.6667,4.6735,4.6749,4.6761,0,0,0,0,0,0,4.6668,4.6641,4.6618,4.6663,4.666,4.6638,4.6666,4.6636,4.6642,4.6635,4.6597,4.6594,4.6634,4.6626,4.6594,4.6668,4.6622,4.6629,4.6672,4.6686,4.6696,4.6697,4.6533,0,0,0,0,0,4.669,4.6707,4.6682,4.6725,4.6724,4.6696,4.6703,4.6679,4.6674,4.6672,4.6658,4.6655,4.6667,4.6676,4.6686,4.6738,4.6734,4.6765,4.6776,4.6785,4.6792,4.6818,4.6831,4.6689,4.6689,4.6689,0,0,4.6734,4.6722,4.6735,4.6739,4.6734,4.6752,4.6695,4.6717,4.673,4.6675,4.6707,4.6697,4.669,4.6734,4.6752,4.6728,4.683,4.6793,4.68,4.6802,4.6825,4.6839,4.6851,4.6694,4.6693,4.6692,0,0,4.6825,4.6817,4.6851,4.6847,4.6839,4.6819,4.6828,4.6811,4.6802,4.6833,4.6792,4.6808,4.683,4.6827,4.6829,4.6918,4.6886,4.6923,4.698,4.7007,4.7018,4.7027,4.7058,4.707,4.6929,4.693,4.693,0,4.6881,4.6907,4.6873,4.6897,4.69,4.6851,4.6885,4.6883,4.6879,4.6882,4.6856,4.6882,4.6875,4.6917,4.6938,4.6942,4.695,4.6924,4.7019,4.7028,4.7037,4.7066,4.7078,4.6934,4.6933,4.6933,4.6933,0,4.6976,4.6995,4.7024,4.702,4.7027,4.7056,4.7027,4.7037,4.7013,4.6997,4.7029,4.7018,4.7025,4.7033,4.7011,4.7072,4.7057,4.7026,4.6978,4.7055,4.7082,4.7093,4.694,4.6939,4.6937,4.6936,0,0,4.7112,4.7089,4.71,4.7098,4.7086,4.71,4.7127,4.7133,4.7143,4.7142,4.7164,4.7184,4.7154,4.7156,4.7132,4.7156,4.7226,4.7121,4.712,4.714,4.7293,4.7316,4.7329,4.7205,4.7207,4.7209,4.7293,0,4.7197,4.7242,4.7212,4.7261,4.7278,4.7232,4.7255,4.7251,4.7236,4.7249,4.7233,4.7247,4.7208,4.7208,4.7229,4.7213,4.7256,4.7207,4.7225,4.7226,4.7227,4.7343,4.7368,4.7448,4.7303,4.7305,4.7306,0,4.7303,4.7306,4.7357,4.7341,4.7347,4.7368,4.7371,4.7384,4.7378,4.7365,4.7368,4.7338,4.7364,4.7318,4.7353,4.732,4.7326,4.7319,4.7322,4.7321,4.727,4.7345,4.7472,4.7484,4.7323,4.7321,4.732,0,4.7395,4.7412,4.7445,4.7444,4.7427,4.7443,4.7437,4.7428,4.7434,4.7437,4.744,4.7446,4.745,4.7455,4.7428,4.7398,4.7467,4.7419,4.7457,4.7458,4.7473,4.7472,4.7602,4.7479,4.7479,4.7478,4.7478,0,4.7493,4.7526,4.7486,4.7506,4.7541,4.7507,4.7543,4.7532,4.7525,4.7542,4.7503,4.752,4.7484,4.7497,4.7476,4.7508,4.751,4.7501,4.7495,4.7504,4.7505,4.7506,4.75,4.7481,4.7481,4.748,4.748,0,4.7602,4.7576,4.7609,4.7589,4.7585,4.7612,4.7596,4.7613,4.7596,4.7619,4.7622,4.7596,4.7609,4.7583,4.7594,4.758,4.7624,4.761,4.7626,4.7621,4.7661,4.7657,4.7795,4.7811,4.7679,4.7681,4.7682,0,4.7665,4.7689,4.7672,4.7681,4.7676,4.769,4.7695,4.7663,4.767,4.7665,4.7683,4.7694,4.77,4.7724,4.7706,4.7714,4.7699,4.7747,4.77,4.7708,4.7699,4.7697,4.7699,4.7757,4.7758,4.7759,4.7761,0,4.778,4.7767,4.7775,4.778,4.7787,4.7789,4.7789,4.7798,4.7763,4.7773,4.7787,4.7792,4.7802,4.7813,4.7817,4.781,4.778,4.7776,4.7785,4.7793,4.7801,4.7797,4.7651,4.7772,4.7771,4.777,4.777,4.7769,4.7868,4.7886,4.7877,4.7888,4.7884,4.7885,4.79,4.7885,4.7895,4.7901,4.7881,4.7899,4.7892,4.7894,4.7891,4.7904,4.7883,4.7897,4.79,4.7903,4.7909,4.78,4.7905,4.7905,4.7904,4.7904,4.7904,0,4.798,4.7972,4.7982,4.7982,4.7991,4.7961,4.7959,4.7968,4.7984,4.798,4.7987,4.8002,4.8013,4.7996,4.8003,4.8017,4.8004,4.802,4.8018,4.8017,4.7928,4.7919,4.8031,4.8031,4.8031,4.8031,4.8031,4.8031,4.8039,4.8069,4.8054,4.8082,4.8074,4.809,4.8091,4.8092,4.8088,4.8106,4.8115,4.8103,4.8094,4.8101,4.8109,4.8104,4.8108,4.8129,4.8119,4.8036,4.8024,4.8012,4.8003,4.8131,4.8131,4.8207,4.8208,4.8208]}]]